Regional Weather Roundup
Issued by NWS Northern Indiana

Home | Current Version | Previous Version | Text Only | Print | Product List | Glossary Off
Versions: 1 2 3 4 5 6 7 8 9 10 11 12 13 14 15 16 17 18 19 20 21 22 23 24 25 26 27 28 29 30 31 32 33 34 35 36 37 38 39 40 41 42 43 44 45 46 47 48 49 50

000
ASUS43 KIWX 271110
RWRIWX

KIWX WEATHER ROUNDUP
NATIONAL WEATHER SERVICE NORTHERN INDIANA
700 AM EDT SAT MAY 27 2017

NOTE: "FAIR" INDICATES FEW OR NO CLOUDS BELOW 12,000 FEET WITH NO
SIGNIFICANT WEATHER AND/OR OBSTRUCTIONS TO VISIBILITY.

* THESE STATIONS ARE NOT UNDER NWS QUALITY CONTROL. THEY ALSO MAY NOT
  REPORT WEATHER SUCH AS PRECIPITATION OR FOG.

INZ001>027-271200-
NORTHERN INDIANA

CITY           SKY/WX    TMP DP  RH WIND       PRES   REMARKS
GARY*          CLOUDY    55  52  88 N7        29.89R
VALPARAISO     MOCLDY    60  58  92 CALM      29.88R
MICHIGAN CITY* CLOUDY    55  55 100 CALM      29.87S FOG
LAPORTE*       PTCLDY    58  56  94 NE3       29.88R
KNOX*          CLOUDY    57  54  88 E3        29.86R
SOUTH BEND     MOCLDY    57  57 100 NE3       29.87R
GOSHEN         CLOUDY    59  56  89 E7        29.87R FOG
MONTICELLO*    CLOUDY    60  59  96 N6        29.85R FOG
LOGANSPORT*    CLOUDY    61  61 100 N6        29.86R FOG
ROCHESTER*     CLOUDY    63  63 100 NE5       29.86R FOG
WARSAW*        CLOUDY    59  59 100 NE5       29.86R FOG
ANGOLA*        CLOUDY    57  46  67 NE3       29.86S
FORT WAYNE     CLOUDY    61  59  93 NE6       29.85R FOG
HUNTINGTON*    CLOUDY    60  59  96 NE3       29.84R FOG
PERU/GRISSOM   CLOUDY    62  62 100 NE6       29.84R FOG
MARION*        CLOUDY    63  63 100 E6        29.84R FOG

$$
INZ028>050-271200-
CENTRAL INDIANA

CITY           SKY/WX    TMP DP  RH WIND       PRES   REMARKS
LAFAYETTE      FOG       60  60 100 NW8       29.85R VSB 1/4
KOKOMO*        CLOUDY    63  62  97 N6        29.85R FOG
MUNCIE*        CLOUDY    68  64  87 W6        29.83R
INDIANAPOLIS   CLOUDY    68  66  93 W7        29.83S

$$
MIZ043>046-050>051-056>058-064>065-071>073-077>080-271200-
SOUTHWEST LOWER MICHIGAN

CITY           SKY/WX    TMP DP  RH WIND       PRES   REMARKS
BATTLE CREEK   CLEAR     58  57  97 CALM      29.89R
BENTON HARBOR  CLOUDY    55  53  93 CALM      29.87R FOG
COLDWATER*     CLOUDY    60  60 100 CALM      29.88S FOG
HILLSDALE*     CLOUDY    59  55  88 CALM      29.88R FOG
HOLLAND        CLEAR     54  52  93 CALM      29.90R FOG
GRAND RAPIDS   PTCLDY    57  56  96 CALM      29.89R
KALAMAZOO      MOCLDY    60  57  89 N5        29.89R FOG
STURGIS*       CLOUDY    58  58  99 NE3       29.86S FOG
THREE RIVERS*  CLOUDY    58  58  98 NE3       29.88R

$$
OHZ001>008-015>018-024>025-271200-
NORTHWEST OHIO

CITY           SKY/WX    TMP DP  RH WIND       PRES   REMARKS
WAUSEON*       CLOUDY    61  61 100 E3        29.87R FOG
DEFIANCE       CLOUDY    59  58  96 E5        29.85S
FINDLAY        CLOUDY    61  58  90 NE7       29.84R FOG
TOLEDO EXPRESS CLOUDY    60  60 100 CALM      29.86S FOG
TOLEDO METCALF CLOUDY    62  60  93 NE3       29.87R FOG
LIMA           CLOUDY    62  61  96 E5        29.85R

$$
AND FOR LAKE MICHIGAN COASTAL AND OPEN LAKE BUOY OBSERVATIONS

STATION/POSITION TEMP    WIND        PRES    VSBY  WAVE
                 AIR SEA DIR/SP/G                  HT/PER
                 (F)     (DEG/KT/KT) (MB)    (MI)  (FT/S)
CALUMET HARBOR    53     350/  6/ 10 1011.5R
MICHIGAN CITY     54      20/ 11/ 12   N/A
BURNS HARBOR      53      30/  7/  8 1012.2R
SOUTH LAKE BUOY   47 46  350/  6/  8 1012.1          0
4 MI NW BRIDGMAN  57 58   60/  8/ 10 1011.9          1
MICHIGAN CITY     53 53   20/  8/ 10   N/A           1/ 2

$$
&&



USA.gov is the U.S. government's official web portal to all federal, state and local government web resources and services.